Terminal Aerodrome Forecast
Issued by NWS Chicago, IL

Home | Current Version | Previous Version | Text Only | Print | Product List | Glossary On
Versions: 1 2 3 4 5 6 7 8 9 10 11 12 13 14 15 16 17 18 19 20 21 22 23 24 25 26 27
517
FTUS43 KLOT 120856 AAA
TAFRFD
TAF AMD
KRFD 120856Z 1209/1306 33014G22KT P6SM SCT035
     FM122200 31008KT P6SM OVC100
     FM130400 25006KT P6SM OVC060=

USA.gov is the U.S. government's official web portal to all federal, state and local government web resources and services.